| time (UTC) | temp C | wind direction | speed KPH | gust KPH | rain 1hr cm | rain 24hr cm | rain mn cm | humidity % | barometer mb |
| 20260505031002 | 9 | 240 | 12.9 | 24.1 | 0.00 | 0.00 | 0.00 | 81 | 1006.7 |
| 20260505030003 | 10 | 250 | 11.3 | 20.9 | 0.00 | 0.00 | 0.00 | 81 | 1006.8 |
| 20260505025002 | 10 | 257 | 12.9 | 25.7 | 0.00 | 0.00 | 0.00 | 80 | 1006.7 |
| 20260505024003 | 10 | 250 | 12.9 | 27.4 | 0.00 | 0.00 | 0.00 | 80 | 1006.7 |
| 20260505023003 | 10 | 256 | 16.1 | 30.6 | 0.00 | 0.00 | 0.00 | 80 | 1006.6 |
| 20260505022002 | 10 | 256 | 19.3 | 35.4 | 0.00 | 0.00 | 0.00 | 80 | 1006.6 |
| 20260505021003 | 10 | 252 | 20.9 | 32.2 | 0.00 | 0.00 | 0.00 | 80 | 1006.6 |
| 20260505020045 | 10 | 255 | 17.7 | 27.4 | 0.00 | 0.00 | 0.00 | 81 | 1006.6 |
| 20260505015023 | 10 | 250 | 16.1 | 25.7 | 0.00 | 0.00 | 0.00 | 82 | 1006.5 |
| 20260505014003 | 9 | 254 | 17.7 | 27.4 | 0.00 | 0.00 | 0.00 | 83 | 1006.5 |
| 20260505013002 | 9 | 247 | 12.9 | 24.1 | 0.00 | 0.00 | 0.00 | 83 | 1006.4 |
| 20260505012003 | 9 | 247 | 12.9 | 22.5 | 0.00 | 0.00 | 0.00 | 83 | 1006.3 |
| 20260505011024 | 9 | 250 | 14.5 | 25.7 | 0.00 | 0.00 | 0.00 | 83 | 1006.3 |
| 20260505010002 | 8 | 253 | 11.3 | 20.9 | 0.00 | 0.00 | 0.00 | 83 | 1006.3 |
| 20260505005024 | 8 | 249 | 9.7 | 16.1 | 0.00 | 0.00 | 0.00 | 84 | 1006.1 |
| 20260505004003 | 8 | 235 | 11.3 | 20.9 | 0.00 | 0.00 | 0.00 | 84 | 1005.8 |
| 20260505003002 | 8 | 230 | 11.3 | 19.3 | 0.00 | 0.00 | 0.00 | 84 | 1005.8 |
| 20260505002003 | 8 | 231 | 11.3 | 16.1 | 0.00 | 0.00 | 0.00 | 84 | 1005.7 |
| 20260505001003 | 8 | 247 | 6.4 | 12.9 | 0.00 | 0.00 | 0.00 | 84 | 1005.7 |
| 20260505000003 | 8 | 231 | 9.7 | 16.1 | 0.00 | 0.00 | 0.00 | 84 | 1005.6 |
| 20260504235003 | 8 | 241 | 6.4 | 16.1 | 0.00 | 0.00 | 0.00 | 83 | 1005.5 |
| 20260504234023 | 8 | 205 | 16.1 | 17.7 | 0.00 | 0.00 | 0.00 | 83 | 1005.3 |
| 20260504233003 | 8 | 208 | 12.9 | 16.1 | 0.00 | 0.00 | 0.00 | 81 | 1005.2 |
| 20260504232002 | 9 | 217 | 6.4 | 12.9 | 0.00 | 0.00 | 0.00 | 81 | 1005.3 |
| 20260504231003 | 9 | 205 | 6.4 | 12.9 | 0.00 | 0.00 | 0.00 | 81 | 1005.2 |
| 20260504230003 | 9 | 200 | 6.4 | 16.1 | 0.00 | 0.00 | 0.00 | 82 | 1004.9 |
| 20260504225002 | 9 | 195 | 12.9 | 17.7 | 0.00 | 0.00 | 0.00 | 81 | 1004.9 |
| 20260504224003 | 9 | 208 | 12.9 | 16.1 | 0.00 | 0.00 | 0.00 | 81 | 1004.7 |
| 20260504223002 | 9 | 216 | 8.0 | 14.5 | 0.00 | 0.00 | 0.00 | 80 | 1004.7 |
| 20260504222003 | 10 | 216 | 6.4 | 14.5 | 0.00 | 0.00 | 0.00 | 80 | 1004.7 |
| 20260504221003 | 10 | 209 | 9.7 | 16.1 | 0.00 | 0.00 | 0.00 | 79 | 1004.9 |
| 20260504220003 | 10 | 211 | 4.8 | 14.5 | 0.00 | 0.00 | 0.00 | 78 | 1004.8 |
| 20260504215003 | 10 | 195 | 12.9 | 17.7 | 0.00 | 0.00 | 0.00 | 77 | 1004.7 |
| 20260504214002 | 10 | 207 | 11.3 | 16.1 | 0.00 | 0.00 | 0.00 | 78 | 1004.8 |
| 20260504213003 | 10 | 192 | 12.9 | 17.7 | 0.00 | 0.00 | 0.00 | 77 | 1004.7 |
| 20260504212003 | 11 | 194 | 9.7 | 11.3 | 0.00 | 0.00 | 0.00 | 76 | 1004.8 |
| 20260504211002 | 11 | 198 | 8.0 | 14.5 | 0.00 | 0.00 | 0.00 | 77 | 1004.7 |
| 20260504210003 | 11 | 219 | 6.4 | 16.1 | 0.00 | 0.00 | 0.00 | 76 | 1004.6 |
| 20260504205003 | 11 | 217 | 4.8 | 16.1 | 0.00 | 0.00 | 0.00 | 77 | 1004.5 |
| 20260504204003 | 11 | 207 | 9.7 | 14.5 | 0.00 | 0.00 | 0.00 | 75 | 1004.4 |
| 20260504203003 | 12 | 234 | 4.8 | 12.9 | 0.00 | 0.00 | 0.00 | 77 | 1004.4 |
| 20260504202003 | 11 | 237 | 4.8 | 11.3 | 0.00 | 0.00 | 0.00 | 77 | 1004.5 |
| 20260504201003 | 11 | 227 | 8.0 | 11.3 | 0.00 | 0.00 | 0.00 | 78 | 1004.6 |
| 20260504200002 | 11 | 237 | 4.8 | 6.4 | 0.00 | 0.00 | 0.00 | 77 | 1004.4 |
| 20260504195003 | 11 | 240 | 3.2 | 9.7 | 0.00 | 0.00 | 0.00 | 76 | 1004.4 |
| 20260504194003 | 11 | 249 | 4.8 | 19.3 | 0.00 | 0.00 | 0.00 | 75 | 1004.5 |
| 20260504193002 | 11 | 252 | 11.3 | 22.5 | 0.00 | 0.00 | 0.00 | 76 | 1004.5 |
| 20260504192002 | 10 | 261 | 14.5 | 22.5 | 0.00 | 0.00 | 0.00 | 78 | 1004.7 |
| 20260504191003 | 10 | 265 | 14.5 | 20.9 | 0.00 | 0.00 | 0.00 | 78 | 1004.7 |
| 20260504190003 | 10 | 273 | 17.7 | 22.5 | 0.00 | 0.00 | 0.00 | 76 | 1004.7 |
| 20260504185002 | 10 | 247 | 11.3 | 20.9 | 0.00 | 0.00 | 0.00 | 74 | 1004.7 |
| 20260504184003 | 11 | 249 | 11.3 | 27.4 | 0.00 | 0.00 | 0.00 | 73 | 1004.6 |
| 20260504183002 | 11 | 266 | 17.7 | 27.4 | 0.00 | 0.00 | 0.00 | 73 | 1004.6 |
| 20260504182003 | 11 | 212 | 20.9 | 33.8 | 0.00 | 0.00 | 0.00 | 74 | 1004.6 |
| 20260504181003 | 10 | 257 | 22.5 | 30.6 | 0.00 | 0.00 | 0.00 | 78 | 1004.6 |
| 20260504180003 | 10 | 238 | 14.5 | 25.7 | 0.00 | 0.03 | 0.00 | 79 | 1004.6 |
| 20260504175045 | 10 | 225 | 14.5 | 22.5 | 0.00 | 0.03 | 0.00 | 80 | 1004.4 |
| 20260504174003 | 10 | 213 | 17.7 | 27.4 | 0.00 | 0.05 | 0.00 | 79 | 1004.3 |
| 20260504173002 | 10 | 211 | 22.5 | 32.2 | 0.00 | 0.08 | 0.00 | 78 | 1004.4 |
| 20260504172003 | 10 | 211 | 24.1 | 35.4 | 0.00 | 0.08 | 0.00 | 77 | 1004.4 |
| 20260504171002 | 10 | 209 | 29.0 | 33.8 | 0.00 | 0.08 | 0.00 | 78 | 1004.3 |
| 20260504151002 | 9 | 210 | 16.1 | 25.7 | 0.00 | 0.18 | 0.00 | 81 | 1005.6 |
| 20260504081003 | 6 | 262 | 12.9 | 24.1 | 0.00 | 0.76 | 0.00 | 73 | 1006.6 |
| 20260504050024 | 6 | 266 | 12.9 | 20.9 | 0.00 | 0.97 | 0.00 | 71 | 1006.2 |
| 20260504045003 | 6 | 270 | 14.5 | 19.3 | 0.00 | 0.97 | 0.00 | 71 | 1006.1 |
| 20260504044003 | 6 | 265 | 12.9 | 19.3 | 0.00 | 0.97 | 0.00 | 71 | 1006.3 |
| 20260504043023 | 6 | 264 | 11.3 | 17.7 | 0.00 | 0.97 | 0.00 | 70 | 1006.4 |
| 20260504042003 | 6 | 264 | 12.9 | 19.3 | 0.00 | 0.97 | 0.00 | 70 | 1006.4 |
| 20260504041002 | 6 | 265 | 12.9 | 16.1 | 0.00 | 0.97 | 0.00 | 68 | 1006.3 |
| 20260504040003 | 6 | 269 | 14.5 | 19.3 | 0.00 | 0.97 | 0.97 | 67 | 1006.2 |
| 20260504035003 | 6 | 266 | 14.5 | 19.3 | 0.00 | 0.97 | 0.97 | 66 | 1006.1 |
| 20260504034003 | 7 | 271 | 16.1 | 22.5 | 0.00 | 0.97 | 0.97 | 65 | 1006.1 |
| 20260504033002 | 7 | 272 | 12.9 | 22.5 | 0.00 | 0.97 | 0.97 | 65 | 1006.0 |
| 20260504032003 | 7 | 272 | 16.1 | 24.1 | 0.00 | 0.97 | 0.97 | 64 | 1005.9 |